Wind_Speed
32 36 39 41 44 48 50 54 54 56 57 60 61 61 63 66 73 71 62 49 49 48 58 55 55 52 51 51 49 54 52 64 66 64 63 61 56 57 57 62 69 74 80 81 81 85 68 63 76 86 89 90 82 84
39 42 45 50 51 52 53 57 58 61 64 66 70 71 65 71 76 75 59 45 44 44 53 58 58 57 56 57 55 57 61 67 65 63 63 60 57 56 60 58 67 70 81 77 84 72 61 73 78 83 89 89 83 85
44 47 52 56 59 59 62 66 67 68 69 71 75 73 70 74 76 76 57 50 48 44 51 53 60 62 62 61 62 59 69 64 63 60 59 55 56 58 60 58 64 61 69 74 78 64 68 74 83 87 86 86 74 76
51 55 59 62 62 65 67 68 69 72 74 77 77 75 71 73 78 88 61 59 53 48 51 55 61 64 64 65 68 67 64 59 58 54 51 48 50 52 48 49 51 57 58 64 63 63 64 67 78 77 74 71 72 76
58 60 60 63 65 68 73 74 71 74 75 79 73 68 72 77 86 78 60 57 56 53 50 61 63 64 65 62 59 54 56 51 43 39 40 40 37 33 35 38 45 52 55 53 52 61 59 59 59 63 65 66 61 65
64 64 67 68 71 73 76 77 75 75 69 72 74 73 84 86 85 65 61 55 58 56 57 62 62 58 52 46 40 39 34 26 24 22 17 16 19 19 23 25 23 19 30 39 41 33 30 21 21 24 33 46 48 50
68 69 71 73 76 78 78 80 79 77 74 76 82 81 87 87 76 60 56 54 57 59 61 55 45 35 27 20 16 11 6 7 13 23 35 35 41 37 30 29 24 24 26 29 28 24 27 25 8 30 36 42 39 37
72 74 76 78 80 79 79 86 76 77 75 81 88 85 90 82 63 56 50 54 57 60 53 39 27 17 11 3 8 15 28 56 69 67 63 54 50 43 48 44 39 40 43 45 40 42 51 51 43 29 27 55 66 47
79 81 84 86 84 85 85 84 79 78 76 82 87 84 83 67 56 47 49 54 55 57 45 30 15 8 16 25 37 72 80 78 73 64 62 52 43 33 43 53 56 59 50 56 58 56 38 32 29 10 40 62 60 54
84 86 84 89 90 88 91 82 81 80 84 81 84 84 78 57 46 46 48 52 55 47 31 18 6 11 27 47 80 82 79 74 73 62 52 40 31 35 54 67 60 47 32 39 50 61 56 46 26 60 61 69 55 55
91 90 93 96 94 91 87 83 87 85 83 82 87 84 64 45 41 43 46 48 48 36 18 10 7 17 37 60 73 74 72 61 63 58 53 43 22 22 44 38 40 31 37 43 48 37 40 38 56 69 51 50 58 59
95 99 99 99 97 94 91 91 89 84 85 86 75 64 45 36 38 39 43 44 37 22 10 8 15 27 40 62 57 59 68 62 57 59 52 40 33 27 31 38 32 36 35 54 67 60 45 62 63 43 40 48 56 55
104 106 104 102 99 95 92 93 88 85 85 75 58 44 35 32 32 37 41 43 27 5 16 18 21 24 41 50 47 46 59 61 60 48 35 33 22 26 37 35 43 55 45 52 72 61 55 52 66 68 59 53 55 58
111 111 107 105 101 96 94 89 87 81 64 47 39 32 27 26 30 37 39 34 22 13 26 27 23 27 37 40 41 35 51 56 54 49 37 32 24 12 14 38 49 55 53 70 69 70 61 52 55 63 68 66 66 60
116 114 108 102 100 97 90 81 66 49 36 32 29 25 22 26 31 35 38 25 13 23 37 31 30 45 45 39 37 37 39 46 51 41 33 37 34 15 21 34 43 49 45 57 60 61 64 66 65 60 59 63 71 69
106 102 100 96 86 69 54 44 34 31 28 25 22 19 21 28 31 34 30 21 9 34 42 37 30 42 52 47 40 36 28 25 29 25 30 36 26 31 31 30 44 58 61 59 60 63 66 67 61 51 60 68 71 72
91 81 71 59 46 35 32 25 25 25 22 20 16 17 23 28 30 32 22 17 10 34 49 42 36 44 44 41 35 32 27 23 18 20 32 34 37 36 37 27 34 37 42 51 70 76 73 67 65 71 74 77 77 79
59 52 43 33 26 27 23 22 21 20 18 15 14 18 24 28 30 25 19 14 14 41 55 46 42 42 45 40 34 23 16 17 14 21 21 13 21 25 38 37 36 41 44 50 62 65 73 76 73 78 77 69 58 44
42 34 29 24 26 21 18 17 19 20 17 16 15 19 26 28 28 19 17 11 19 50 59 49 47 53 47 28 21 21 22 9 8 10 8 17 18 30 39 37 26 20 16 19 27 45 52 42 34 28 25 28 33 37
28 27 24 21 19 19 18 20 20 20 17 15 14 20 27 28 23 18 13 14 26 54 65 56 54 49 46 31 37 39 27 20 15 19 17 21 24 25 26 34 39 23 18 16 18 19 19 22 32 32 33 32 33 35
24 22 20 17 17 18 20 21 21 19 17 15 18 24 28 25 19 17 13 19 29 58 67 61 60 58 49 40 39 31 31 33 25 15 24 25 18 19 20 17 16 15 11 14 16 14 17 18 16 18 22 24 25 27
22 19 17 18 17 20 20 17 17 17 16 18 23 26 24 19 17 13 15 25 32 52 72 63 61 56 56 48 43 42 40 32 22 15 13 17 19 20 15 14 14 9 11 14 16 16 19 17 13 12 14 18 20 24
21 21 21 20 21 18 17 18 17 15 17 23 25 24 20 16 16 12 20 30 36 46 65 71 67 64 67 62 56 49 39 36 32 29 21 24 25 21 18 20 16 11 13 18 19 16 15 11 11 12 16 20 24 27
22 23 23 21 19 20 20 16 15 18 21 24 24 20 15 16 14 16 28 37 42 49 56 68 68 65 66 59 52 50 41 37 25 20 18 20 20 16 15 13 17 17 15 15 15 13 12 10 12 17 20 23 26 28
22 21 19 17 19 20 19 19 19 20 22 22 20 14 15 13 13 21 32 42 50 50 50 51 60 62 56 52 42 35 33 28 23 23 23 17 15 15 15 16 18 20 17 13 12 13 12 11 13 20 23 25 26 27
17 16 18 18 19 20 19 20 22 21 21 18 14 14 12 9 15 28 41 47 51 48 39 40 40 37 35 40 44 30 27 20 23 21 16 14 14 7 12 16 15 15 14 13 13 12 10 14 18 23 25 27 29 29
17 16 17 18 18 18 20 21 21 21 16 13 13 12 8 13 26 36 42 46 48 43 42 42 40 35 35 33 28 25 23 24 23 19 17 16 15 14 15 14 14 11 8 11 13 12 14 19 22 24 26 27 28 30
17 16 17 18 18 19 21 23 18 13 13 14 12 10 9 23 35 38 35 41 45 40 49 49 41 39 36 29 22 23 24 25 21 20 20 19 17 14 16 16 14 8 7 10 10 13 18 22 24 26 28 30 33 36
15 15 17 20 21 16 14 14 15 14 13 13 12 7 14 31 37 34 33 45 49 47 45 43 42 40 36 31 23 23 24 22 21 20 19 17 17 16 18 15 13 11 12 12 13 17 21 24 28 30 32 36 37 42
18 20 18 15 15 16 17 18 19 18 17 16 13 11 23 41 36 36 38 46 45 44 43 42 38 35 27 27 28 25 21 19 19 17 17 20 17 16 15 13 13 12 13 13 17 21 24 27 30 32 34 40 43 42
14 15 17 20 22 22 21 22 22 21 20 18 16 17 25 42 39 40 44 43 42 41 38 33 31 29 24 23 23 20 18 16 16 16 16 19 21 17 15 13 11 10 13 18 19 22 26 29 32 39 43 43 41 45
18 19 20 21 20 20 21 22 24 24 24 22 22 26 33 48 46 45 44 42 37 35 34 30 27 25 22 21 18 17 14 15 17 15 10 10 12 12 12 11 11 14 16 17 22 25 29 33 39 42 40 39 44 44
13 13 13 12 12 12 14 17 20 24 26 27 31 33 44 47 47 45 40 38 31 30 33 28 24 20 16 14 15 17 19 15 13 11 8 5 5 8 9 11 15 17 20 24 27 29 33 36 37 38 40 42 35 34
Wind_Direction
302 304 311 311 313 312 311 310 309 311 315 314 315 316 317 319 328 321 315 305 292 282 283 283 284 284 284 282 279 278 280 281 279 278 277 275 265 256 249 240 237 235 232 232 234 237 232 227 232 236 238 239 237 241
312 314 312 310 310 311 310 310 310 308 309 311 315 316 318 321 329 321 311 304 293 281 285 283 284 285 287 286 284 283 284 282 279 277 274 267 259 252 248 241 238 233 233 229 236 237 230 224 226 232 234 237 238 240
312 312 311 310 307 309 309 308 308 313 314 313 315 318 319 320 326 330 309 308 299 290 284 283 285 286 288 288 286 290 285 279 277 272 270 264 256 251 251 245 241 235 233 229 232 228 225 229 227 228 230 235 237 242
304 306 308 308 309 310 312 314 314 314 314 315 317 317 319 324 325 328 313 311 301 291 285 284 288 291 292 290 287 286 280 277 274 272 268 263 257 255 253 247 240 237 229 227 227 225 227 228 233 238 236 238 238 243
299 303 305 307 311 311 313 313 313 315 316 315 318 316 320 322 326 325 315 308 299 296 294 292 297 295 290 287 285 282 276 275 277 268 260 255 257 254 241 234 224 221 217 213 218 223 226 232 240 243 243 243 245 245
301 304 307 309 310 310 311 314 313 315 317 317 312 319 322 322 324 321 317 305 301 304 304 304 302 297 291 288 283 273 275 275 264 258 252 222 206 198 195 193 188 190 199 207 212 215 215 209 269 259 246 249 256 256
302 306 308 310 310 311 312 311 312 314 313 316 318 318 319 322 322 317 312 303 304 310 314 313 309 304 305 297 283 273 250 166 149 138 132 124 104 103 117 120 129 140 157 182 185 186 164 154 207 262 247 254 251 252
303 305 306 308 310 309 310 310 311 309 314 310 316 319 319 320 315 315 310 306 313 320 324 324 322 329 347 50 123 118 125 124 120 114 105 99 96 91 98 115 124 122 123 125 121 141 137 143 188 107 131 203 236 263
301 303 304 305 307 306 306 308 305 306 313 310 316 319 319 316 312 312 307 310 321 327 330 333 345 74 107 112 127 126 123 118 112 104 103 100 95 102 108 112 118 108 109 120 121 134 136 144 143 201 197 232 236 233
299 302 303 306 306 304 306 305 303 307 310 309 313 312 315 311 309 306 310 315 325 330 326 329 33 129 129 132 134 130 127 123 122 115 105 106 92 116 123 122 121 118 133 135 129 122 125 114 173 167 206 227 234 240
297 300 301 302 301 303 302 301 301 304 302 309 310 309 309 302 300 304 308 319 328 330 312 323 131 128 128 145 146 142 137 129 122 113 113 103 95 118 143 148 158 145 128 176 161 128 195 182 200 203 214 228 241 246
297 299 299 299 299 298 298 298 297 298 302 306 308 305 299 292 298 304 309 321 328 322 265 210 147 135 138 152 152 155 158 152 150 137 127 129 130 146 173 182 185 183 190 184 181 177 183 199 215 225 230 235 234 240
296 296 297 296 296 294 294 295 294 294 298 300 298 296 289 295 302 304 311 323 327 276 200 181 157 139 129 156 152 159 167 165 152 139 137 151 147 162 190 199 198 201 205 190 184 194 201 209 212 218 232 242 243 245
292 293 293 294 293 291 292 293 293 294 293 290 288 283 287 299 300 304 315 323 327 186 183 183 159 135 139 145 146 150 173 171 169 168 164 153 169 192 225 215 210 207 205 200 203 203 210 220 234 239 241 248 249 258
290 291 292 291 290 292 291 290 289 283 283 280 276 277 290 294 300 306 316 316 317 178 181 195 162 141 124 119 140 141 157 183 183 181 180 186 193 212 240 215 222 229 230 224 224 226 228 235 239 243 252 254 255 267
290 290 289 289 289 288 283 278 273 275 269 265 264 277 287 293 300 309 314 310 283 180 182 194 168 146 124 120 126 134 136 150 171 176 180 190 192 212 227 226 225 228 235 243 246 242 248 256 252 253 258 264 272 270
289 288 287 285 281 271 265 262 261 257 252 246 260 277 284 293 305 312 306 307 220 189 179 187 177 151 140 131 120 128 137 140 151 169 179 190 205 220 221 235 234 240 249 251 244 244 247 245 242 244 256 271 265 266
284 283 279 269 256 251 253 250 250 239 233 242 256 275 289 300 309 308 304 290 203 184 180 183 176 159 158 159 150 147 152 137 138 156 166 222 245 257 238 251 245 247 257 257 255 256 252 258 262 268 266 260 258 256
278 270 256 240 240 247 249 233 218 227 230 242 259 282 294 306 313 298 302 252 190 181 179 178 179 167 166 161 168 154 147 143 176 172 233 237 249 251 246 246 242 265 256 244 234 240 244 240 222 219 228 241 253 264
260 247 239 234 235 234 205 204 219 231 237 251 276 291 294 306 305 295 291 221 186 183 178 182 185 180 159 160 167 171 168 177 194 223 231 248 252 264 249 251 250 255 240 238 249 241 231 224 219 225 234 248 259 272
238 225 220 216 207 200 206 215 225 235 243 261 279 288 297 306 291 292 264 209 187 182 178 182 174 177 169 175 174 166 177 194 193 202 217 231 240 224 219 206 223 235 249 251 245 241 234 224 219 229 238 246 257 269
221 207 190 182 189 206 216 221 231 234 253 272 283 294 299 292 283 283 228 197 189 183 180 184 188 180 184 175 168 164 170 180 188 179 216 220 214 210 216 228 228 248 259 261 248 243 229 229 237 248 269 278 284 292
201 183 185 196 204 207 217 221 234 253 270 280 292 295 291 276 278 245 207 190 188 183 184 186 191 190 188 188 187 188 193 201 206 225 225 214 214 215 232 239 252 261 260 259 250 228 238 257 275 290 303 307 308 309
191 195 200 200 202 210 220 235 250 265 274 286 290 292 277 276 258 213 189 185 187 182 184 190 195 199 195 197 207 215 216 215 207 209 227 216 216 217 226 238 252 250 244 247 229 232 242 255 297 314 313 313 317 322
201 204 200 204 216 225 237 253 267 272 281 285 290 275 275 275 224 199 181 180 180 182 187 191 199 201 204 207 198 198 207 213 204 209 217 213 225 213 229 244 224 215 229 238 235 236 253 288 302 311 313 316 321 322
200 203 207 214 227 238 251 261 270 276 281 283 266 272 283 241 197 176 175 177 180 179 176 177 181 182 185 185 187 179 185 200 208 207 211 218 227 254 224 216 225 233 229 235 233 246 279 291 292 306 313 319 327 331
210 213 221 231 243 251 258 262 268 276 265 248 258 266 264 194 173 169 175 178 180 174 176 177 177 179 179 175 182 193 194 199 203 198 197 222 240 264 236 227 225 243 243 242 252 266 295 303 308 311 315 322 325 323
219 227 238 249 254 254 262 267 261 230 225 244 245 258 208 180 167 165 169 178 178 175 174 176 179 183 179 175 189 197 203 205 209 219 220 235 250 228 209 220 232 233 268 260 262 289 299 312 315 316 318 319 319 314
234 241 246 256 263 256 238 224 215 223 240 236 246 241 183 182 171 164 165 174 176 172 172 178 183 184 182 189 199 190 199 205 207 219 233 237 207 211 217 226 235 253 268 274 282 301 309 315 317 316 315 317 316 316
251 257 253 241 232 232 236 237 240 239 228 224 238 211 180 183 168 166 167 166 167 173 178 179 181 183 185 185 193 198 202 212 221 246 231 203 203 207 216 232 256 272 281 288 296 302 310 315 316 314 315 317 320 322
244 247 255 258 259 255 246 237 232 224 216 216 223 193 175 177 168 168 167 166 170 175 175 177 182 180 179 184 193 209 218 232 232 217 217 217 211 223 237 252 264 276 284 288 299 313 317 314 309 315 320 324 324 322
266 267 268 267 264 255 242 230 222 216 211 206 198 180 171 169 169 165 169 169 172 174 175 174 174 181 192 204 208 219 219 194 192 200 202 214 226 233 236 251 271 288 298 310 317 316 314 315 314 317 321 323 322 326
268 269 270 264 250 234 213 198 191 188 184 179 170 164 161 163 161 168 168 166 167 171 170 173 182 190 199 208 194 173 169 177 185 204 221 226 228 239 254 271 282 296 308 312 312 312 315 318 320 322 323 324 326 326
Height
10865 10861 10858 10854 10851 10846 10841 10835 10830 10824 10817 10810 10803 10796 10788 10778 10768 10757 10752 10744 10738 10735 10720 10724 10724 10723 10718 10713 10714 10709 10709 10694 10693 10693 10693 10690 10691 10690 10697 10702 10707 10716 10723 10735 10748 10750 10793 10818 10815 10812 10816 10823 10845 10849
10855 10851 10848 10844 10839 10835 10830 10824 10817 10811 10804 10797 10789 10781 10771 10762 10752 10740 10727 10724 10721 10717 10708 10700 10699 10698 10697 10690 10690 10685 10683 10672 10669 10667 10664 10664 10664 10668 10671 10682 10680 10693 10693 10725 10724 10756 10784 10781 10783 10782 10794 10801 10825 10832
10843 10840 10836 10831 10826 10821 10815 10809 10803 10796 10789 10781 10772 10764 10756 10745 10737 10726 10713 10706 10700 10699 10691 10686 10675 10673 10672 10667 10660 10665 10646 10646 10642 10640 10638 10640 10642 10644 10650 10660 10662 10677 10683 10702 10708 10746 10750 10756 10755 10760 10772 10788 10819 10821
10831 10827 10822 10817 10812 10806 10799 10793 10787 10780 10772 10763 10755 10747 10738 10727 10718 10710 10695 10689 10683 10679 10673 10665 10658 10649 10644 10641 10635 10629 10623 10620 10617 10618 10618 10621 10622 10625 10631 10638 10652 10654 10669 10685 10711 10724 10739 10749 10748 10765 10780 10791 10800 10805
10816 10811 10807 10802 10796 10790 10782 10776 10769 10764 10755 10746 10738 10729 10721 10710 10699 10688 10678 10668 10664 10659 10655 10643 10633 10626 10617 10613 10607 10604 10596 10596 10599 10600 10599 10601 10605 10610 10615 10620 10626 10632 10652 10677 10697 10707 10724 10741 10750 10761 10776 10781 10795 10801
10802 10796 10791 10785 10779 10772 10765 10757 10752 10746 10738 10729 10720 10712 10702 10692 10682 10671 10661 10649 10644 10639 10634 10623 10610 10597 10590 10586 10584 10580 10581 10584 10585 10587 10589 10592 10595 10599 10606 10614 10627 10644 10661 10675 10690 10708 10726 10742 10751 10760 10769 10778 10786 10788
10785 10780 10774 10768 10762 10755 10748 10741 10734 10728 10721 10711 10702 10695 10684 10674 10665 10656 10648 10640 10632 10623 10613 10600 10586 10578 10574 10572 10570 10570 10572 10575 10580 10583 10591 10593 10599 10605 10612 10622 10636 10646 10657 10676 10689 10706 10726 10736 10759 10768 10761 10771 10776 10778
10767 10761 10756 10750 10744 10737 10730 10724 10716 10710 10705 10695 10685 10677 10668 10659 10648 10640 10635 10627 10619 10607 10595 10584 10576 10572 10570 10568 10568 10568 10572 10579 10585 10587 10592 10602 10609 10616 10621 10630 10639 10652 10666 10678 10690 10709 10722 10732 10779 10756 10762 10768 10764 10764
10748 10742 10737 10731 10725 10719 10712 10705 10698 10694 10687 10676 10670 10662 10651 10646 10636 10630 10623 10618 10610 10598 10586 10580 10577 10574 10573 10571 10572 10579 10587 10590 10595 10595 10603 10613 10622 10632 10637 10646 10658 10662 10676 10685 10700 10715 10727 10738 10750 10763 10766 10759 10750 10753
10728 10723 10717 10711 10705 10698 10692 10686 10678 10674 10666 10662 10653 10647 10638 10632 10625 10619 10613 10609 10602 10591 10582 10582 10582 10579 10577 10578 10583 10590 10592 10592 10590 10603 10608 10617 10635 10644 10649 10658 10667 10673 10683 10700 10705 10715 10724 10745 10750 10731 10717 10734 10741 10746
10706 10702 10696 10690 10683 10678 10672 10666 10661 10656 10646 10643 10636 10631 10626 10620 10616 10610 10605 10602 10596 10588 10582 10584 10586 10587 10586 10586 10588 10592 10599 10602 10605 10612 10618 10624 10637 10647 10655 10660 10667 10673 10682 10692 10698 10711 10712 10709 10708 10705 10713 10725 10734 10738
10684 10678 10672 10666 10661 10656 10651 10646 10640 10636 10627 10624 10619 10614 10612 10608 10606 10603 10598 10595 10590 10583 10581 10585 10590 10591 10589 10591 10594 10597 10601 10606 10608 10609 10614 10625 10632 10643 10651 10655 10660 10671 10671 10674 10683 10686 10688 10690 10695 10699 10705 10711 10718 10724
10657 10652 10648 10642 10638 10632 10627 10623 10618 10612 10610 10605 10601 10601 10598 10598 10597 10593 10590 10586 10583 10580 10581 10585 10591 10596 10595 10594 10595 10598 10602 10609 10613 10624 10626 10630 10638 10642 10651 10648 10653 10661 10669 10671 10678 10681 10683 10688 10693 10701 10703 10707 10710 10713
10630 10624 10619 10616 10611 10606 10603 10600 10595 10592 10590 10587 10588 10588 10588 10589 10588 10584 10581 10579 10577 10577 10580 10585 10591 10597 10598 10596 10598 10603 10608 10614 10619 10622 10626 10634 10640 10645 10647 10647 10649 10659 10665 10676 10678 10679 10679 10682 10684 10685 10688 10693 10695 10698
10599 10595 10589 10586 10581 10579 10576 10574 10572 10573 10572 10574 10575 10577 10579 10579 10579 10576 10573 10571 10571 10572 10578 10582 10593 10598 10599 10600 10601 10604 10611 10616 10622 10627 10632 10637 10642 10645 10645 10650 10651 10650 10657 10664 10667 10668 10671 10675 10679 10683 10681 10683 10688 10690
10567 10563 10560 10555 10554 10553 10552 10552 10556 10558 10560 10563 10565 10569 10570 10570 10569 10567 10565 10563 10563 10567 10573 10579 10591 10599 10600 10603 10607 10609 10613 10618 10620 10627 10631 10636 10639 10641 10641 10644 10648 10652 10653 10652 10651 10655 10657 10659 10668 10676 10674 10678 10678 10675
10538 10535 10533 10533 10533 10535 10537 10541 10544 10547 10550 10554 10558 10560 10560 10561 10561 10558 10555 10555 10555 10561 10569 10577 10588 10597 10598 10604 10608 10611 10615 10620 10623 10626 10629 10636 10638 10640 10641 10642 10643 10646 10648 10648 10652 10653 10654 10655 10665 10668 10672 10671 10666 10667
10515 10516 10517 10518 10520 10522 10528 10532 10535 10538 10543 10546 10549 10551 10552 10552 10551 10548 10547 10546 10548 10554 10563 10573 10583 10590 10595 10599 10605 10611 10615 10620 10622 10627 10629 10633 10634 10638 10638 10639 10642 10642 10643 10643 10645 10646 10652 10654 10657 10657 10660 10659 10660 10660
10500 10501 10503 10506 10510 10516 10521 10524 10528 10532 10536 10538 10542 10543 10543 10543 10542 10540 10539 10539 10542 10549 10558 10568 10576 10582 10585 10595 10603 10611 10616 10619 10623 10625 10630 10633 10634 10636 10637 10637 10638 10645 10647 10647 10647 10649 10651 10653 10654 10651 10649 10649 10651 10651
10488 10490 10494 10499 10505 10510 10514 10518 10522 10525 10529 10533 10535 10536 10535 10535 10533 10533 10532 10533 10537 10542 10554 10562 10569 10580 10590 10594 10598 10602 10608 10613 10617 10621 10625 10628 10631 10633 10632 10634 10637 10639 10638 10641 10644 10644 10647 10648 10646 10646 10647 10648 10647 10648
10480 10484 10489 10494 10499 10505 10509 10513 10516 10519 10524 10525 10527 10528 10527 10527 10526 10525 10525 10527 10533 10540 10550 10557 10566 10575 10583 10589 10592 10594 10602 10605 10609 10612 10617 10621 10624 10625 10627 10626 10626 10629 10632 10635 10638 10641 10640 10641 10641 10641 10642 10643 10643 10641
10476 10480 10485 10490 10495 10500 10505 10508 10511 10515 10516 10518 10519 10519 10519 10518 10519 10518 10518 10521 10528 10536 10546 10555 10563 10572 10579 10584 10591 10594 10596 10600 10606 10612 10616 10618 10620 10622 10621 10623 10625 10627 10629 10631 10633 10635 10636 10636 10637 10637 10637 10636 10634 10631
10474 10477 10482 10487 10492 10497 10501 10504 10507 10508 10510 10511 10511 10510 10510 10511 10511 10512 10513 10517 10525 10533 10542 10551 10559 10566 10572 10577 10582 10586 10592 10599 10605 10612 10613 10613 10616 10618 10619 10623 10624 10625 10627 10629 10630 10632 10632 10632 10632 10631 10629 10627 10625 10621
10471 10475 10479 10484 10489 10493 10496 10498 10500 10502 10503 10503 10503 10503 10503 10502 10503 10505 10508 10513 10520 10528 10536 10547 10555 10561 10569 10573 10576 10583 10591 10596 10602 10606 10609 10613 10615 10617 10619 10620 10621 10623 10626 10628 10628 10629 10629 10628 10627 10625 10623 10621 10617 10614
10469 10473 10478 10482 10485 10489 10491 10493 10494 10495 10496 10495 10495 10496 10495 10495 10496 10499 10503 10511 10520 10528 10536 10546 10555 10561 10566 10572 10580 10587 10593 10597 10599 10602 10606 10609 10611 10613 10615 10617 10620 10623 10624 10625 10626 10626 10626 10625 10624 10622 10619 10616 10613 10608
10467 10471 10475 10478 10480 10483 10485 10486 10487 10488 10489 10489 10490 10490 10490 10490 10492 10495 10504 10512 10521 10530 10538 10545 10551 10557 10563 10570 10581 10587 10591 10593 10597 10601 10604 10606 10607 10611 10613 10616 10619 10621 10622 10622 10623 10623 10623 10622 10620 10618 10615 10611 10607 10602
10465 10468 10470 10473 10475 10477 10478 10479 10480 10482 10483 10484 10485 10485 10487 10487 10490 10496 10505 10515 10524 10531 10538 10546 10551 10558 10566 10574 10579 10583 10587 10591 10594 10598 10601 10604 10606 10608 10611 10614 10616 10618 10618 10618 10618 10618 10618 10616 10614 10611 10608 10604 10599 10595
10461 10463 10465 10467 10469 10470 10471 10472 10473 10476 10478 10479 10481 10483 10485 10487 10490 10496 10504 10513 10524 10530 10537 10544 10551 10560 10568 10575 10578 10583 10588 10591 10594 10596 10600 10603 10605 10607 10610 10612 10614 10614 10615 10615 10614 10614 10612 10610 10608 10604 10601 10597 10593 10587
10456 10458 10460 10461 10462 10463 10464 10467 10469 10473 10475 10477 10480 10481 10484 10488 10492 10499 10505 10513 10523 10532 10540 10547 10554 10562 10568 10574 10578 10583 10587 10591 10594 10596 10599 10602 10604 10606 10609 10611 10612 10612 10612 10612 10611 10610 10608 10605 10602 10598 10594 10590 10585 10579
10452 10452 10453 10454 10456 10458 10460 10463 10465 10467 10470 10473 10475 10478 10482 10488 10495 10503 10509 10518 10527 10535 10542 10549 10557 10564 10570 10575 10579 10583 10587 10590 10593 10596 10598 10600 10603 10606 10608 10609 10609 10610 10609 10609 10607 10605 10603 10600 10596 10592 10588 10584 10577 10570
10446 10447 10447 10448 10449 10450 10452 10454 10457 10460 10465 10469 10472 10475 10480 10490 10499 10507 10515 10522 10531 10539 10547 10553 10559 10565 10570 10574 10579 10583 10587 10590 10591 10593 10596 10598 10602 10603 10605 10606 10607 10606 10605 10604 10602 10600 10597 10593 10589 10584 10579 10574 10568 10562
10440 10439 10439 10439 10439 10439 10440 10443 10447 10452 10458 10464 10469 10474 10479 10490 10501 10511 10520 10528 10537 10544 10550 10556 10563 10568 10572 10575 10578 10581 10584 10587 10591 10594 10596 10597 10600 10601 10602 10603 10603 10602 10601 10599 10597 10594 10591 10586 10581 10576 10572 10567 10561 10554
10433 10432 10432 10431 10430 10431 10433 10436 10441 10447 10453 10461 10468 10476 10486 10496 10506 10516 10525 10534 10541 10546 10552 10558 10563 10569 10572 10575 10577 10580 10584 10587 10591 10594 10596 10598 10599 10599 10599 10599 10599 10599 10597 10595 10592 10589 10585 10580 10574 10568 10563 10558 10552 10547